Weather History for Dayton, OH

Change the Weather History Date:

Saturday, August 3, 2013

  Actual Average Record
Temperature  
Mean Temperature 73 °F 74 °F  
Max Temperature 81 °F 83 °F 100 °F (1964)
Min Temperature 64 °F 64 °F 40 °F (1965)
Degree Days  
Heating Degree Days 0 0  
Month to date heating degree days 0 0  
Since 1 June heating degree days 14 22  
Since 1 July heating degree days 3 0  
Cooling Degree Days 8 9  
Month to date cooling degree days 22 27  
Year to date cooling degree days 650 566  
Since 1 June cooling degree days 519 496  
Growing Degree Days 24 (Base 50)    
Moisture  
Dew Point 65 °F    
Average Humidity 71    
Maximum Humidity 93    
Minimum Humidity 49    
Precipitation  
Precipitation 0.35 in 0.10 in 2.13 in (1978)
Month to date precipitation 0.35 0.30  
Year to date precipitation 21.35 25.62  
Snow  
Snow 0.00 in 0.00 in 0.00 in ()
Month to date snowfall 0.0 0.0  
Since 1 June snowfall 0.0 0.0  
Since 1 July snowfall 0.0 0.0  
Snow Depth 0.00 in    
Sea Level Pressure  
Sea Level Pressure 30.00 in    
Wind  
Wind Speed 7 mph (WNW)    
Max Wind Speed 15 mph    
Max Gust Speed 21 mph    
Visibility 8 miles    
Events Rain    
T = Trace of Precipitation, MM = Missing Value Source: NWS Daily Summary

Daily Weather History Graph

Daily Weather History Graph

Search for Another Location

Airport:

Trip Planner

Search our weather history database for the weather conditions in past years. The results will help you decide how hot, cold, wet, or windy it might be!

Date:

Astronomy

Aug. 03, 2013 Rise Set
Actual Time 6:37 AM EDT 8:47 PM EDT
Civil Twilight 6:07 AM EDT 9:17 PM EDT
Nautical Twilight 5:30 AM EDT 9:54 PM EDT
Astronomical Twilight 4:50 AM EDT 10:34 PM EDT
Moon 3:46 AM EDT (8/3) 6:29 PM EDT (8/3)
Length of Visible Light 15h 10m
Length of Day
14h 10m
Waning Crescent, 9% of the Moon is Illuminated
Aug 3
Waning Crescent
Aug 6
New
Aug 14
First Quarter
Aug 20
Full
Aug 28
Last Quarter

Hourly Weather History & Observations

Time (EDT) Temp. Heat Index Dew Point Humidity Pressure Visibility Wind Dir Wind Speed Gust Speed Precip Events Conditions
12:56 AM 72.0 °F - 64.9 °F 78% 29.97 in 10.0 mi SSW 5.8 mph - N/A   Overcast
1:56 AM 71.1 °F - 63.0 °F 75% 29.98 in 8.0 mi SW 10.4 mph 20.7 mph 0.01 in Rain Light Rain
2:56 AM 70.0 °F - 64.9 °F 84% 29.97 in 10.0 mi South 5.8 mph - 0.08 in Rain Light Rain
3:56 AM 69.1 °F - 66.0 °F 90% 29.97 in 8.0 mi WSW 3.5 mph - 0.00 in Rain Light Rain
4:56 AM 68.0 °F - 66.0 °F 93% 29.96 in 3.0 mi SW 8.1 mph - 0.09 in Rain Rain
5:18 AM 68.0 °F - 66.2 °F 94% 29.99 in 4.0 mi SW 8.1 mph - 0.04 in Rain Light Rain
5:51 AM 68.0 °F - 66.2 °F 94% 29.98 in 2.5 mi SSW 5.8 mph - 0.10 in Rain Rain
5:52 AM 68.0 °F - 66.9 °F 96% 29.96 in 2.5 mi SSW 5.8 mph - 0.10 in Rain Rain
6:18 AM 68.0 °F - 66.2 °F 94% 29.99 in 3.0 mi SW 5.8 mph - 0.06 in Rain Light Rain
6:34 AM 68.0 °F - 66.2 °F 94% 29.98 in 3.0 mi SW 4.6 mph - 0.06 in Rain Light Rain
6:56 AM 68.0 °F - 66.0 °F 93% 29.97 in 2.5 mi SW 4.6 mph - 0.07 in Rain Light Rain
7:12 AM 68.0 °F - 66.2 °F 94% 29.99 in 3.0 mi SW 5.8 mph - 0.00 in Rain Light Rain
7:46 AM 68.0 °F - 66.2 °F 94% 29.99 in 3.0 mi SW 4.6 mph - 0.00 in   Overcast
7:56 AM 68.0 °F - 66.9 °F 96% 29.98 in 3.0 mi SSW 4.6 mph - 0.00 in   Overcast
8:11 AM 68.0 °F - 66.2 °F 94% 30.00 in 4.0 mi SW 4.6 mph - 0.00 in   Overcast
8:56 AM 70.0 °F - 66.9 °F 90% 29.99 in 6.0 mi NW 4.6 mph - 0.00 in   Mostly Cloudy
9:28 AM 71.6 °F - 66.2 °F 83% 30.00 in 10.0 mi NW 3.5 mph - N/A   Mostly Cloudy
9:56 AM 72.0 °F - 66.0 °F 81% 29.99 in 10.0 mi WNW 6.9 mph - N/A   Mostly Cloudy
10:31 AM 73.4 °F - 66.2 °F 78% 30.01 in 10.0 mi NW 5.8 mph - N/A   Mostly Cloudy
10:56 AM 75.9 °F - 66.0 °F 71% 29.99 in 10.0 mi NW 10.4 mph - N/A   Mostly Cloudy
11:56 AM 73.9 °F - 66.0 °F 76% 29.99 in 10.0 mi NNE 6.9 mph - N/A   Mostly Cloudy
12:27 PM 77.0 °F - 66.2 °F 69% 30.02 in 10.0 mi North 8.1 mph - N/A   Mostly Cloudy
12:56 PM 75.9 °F - 66.0 °F 71% 30.01 in 10.0 mi NNW 10.4 mph - N/A   Mostly Cloudy
1:16 PM 75.2 °F - 66.2 °F 73% 30.03 in 10.0 mi North 6.9 mph - N/A   Mostly Cloudy
1:56 PM 78.1 °F - 64.9 °F 64% 30.01 in 10.0 mi NNW 9.2 mph - N/A   Scattered Clouds
2:56 PM 79.0 °F - 64.0 °F 60% 30.01 in 10.0 mi NNW 9.2 mph - N/A   Scattered Clouds
3:56 PM 80.1 °F 81.1 °F 61.0 °F 52% 30.01 in 10.0 mi NNW 11.5 mph - N/A   Scattered Clouds
4:56 PM 80.1 °F 80.7 °F 59.0 °F 48% 30.00 in 10.0 mi NNW 6.9 mph - N/A   Scattered Clouds
5:56 PM 80.1 °F 81.1 °F 61.0 °F 52% 30.00 in 10.0 mi NW 6.9 mph - N/A   Partly Cloudy
6:56 PM 79.0 °F - 60.1 °F 52% 30.00 in 10.0 mi North 5.8 mph - N/A   Scattered Clouds
7:56 PM 77.0 °F - 62.1 °F 60% 30.00 in 10.0 mi North 6.9 mph - N/A   Scattered Clouds
8:56 PM 73.0 °F - 62.1 °F 68% 30.01 in 10.0 mi NNW 3.5 mph - N/A   Scattered Clouds
9:56 PM 70.0 °F - 64.0 °F 81% 30.02 in 10.0 mi NNW 4.6 mph - N/A   Partly Cloudy
10:56 PM 69.1 °F - 63.0 °F 81% 30.03 in 10.0 mi NNW 6.9 mph - N/A   Mostly Cloudy
11:56 PM 66.0 °F - 60.1 °F 81% 30.05 in 10.0 mi NNW 9.2 mph - N/A   Clear